Вернуться в каталог

COSMOS 2251 DEB

АктивенLEO
NORAD 33758·DEBRIS·🇷🇺 Russia

Запущен Jun 16, 1993 с Plesetsk Cosmodrome

Loading…

Ближайшие Пролёты (ближайшие 24 часа)

TLE

СвежийSource: Space-Track

Эпоха: Sep 14, 2026, 10:49 UTC

1 33758U 93036F   26257.45125076  .00001914  00000-0  46785-3 0  9997
2 33758  74.0263  54.9107 0016286  57.2109 323.7802 14.53180025923089

Отслеживайте COSMOS 2251 DEB в реальном времени с AllMySat

Download on the App Store